This demonstration page uses our WeatherBlox Daily Observations layout. Learn more.

Left ArrowRight Arrow

Hourly Observations for August 24, 2021

Temp ( °F °C ) Dew Point ( °F °C ) Humidity (%) Winds ( mph kmh ) Pressure ( in mb ) Visibility ( mi km ) Precip ( " mm )
12:15 am 00:15 Clear 68 20.2 67 19.3 95 95 Calm 30.01 1016 10 16 0.00 0.00
12:35 am 00:35 Clear 68 20.2 67 19.4 95 95 Calm 30.01 1016 10 16 0.00 0.00
12:55 am 00:55 Clear 68 19.9 66 19.1 95 95 Calm 30.02 1016 10 16 0.00 0.00
1:15 am 01:15 Clear 68 20 67 19.2 95 95 Calm 30.02 1016 10 16 0.00 0.00
1:35 am 01:35 Partly Cloudy 67 19.7 66 19 96 96 Calm 30.02 1016 10 16 0.00 0.00
1:55 am 01:55 Clear 67 19.5 66 18.8 96 96 Calm 30.02 1017 10 16 0.00 0.00
2:15 am 02:15 Clear 67 19.5 66 18.7 95 95 Calm 30.02 1017 10 16 0.00 0.00
2:35 am 02:35 Clear 67 19.3 65 18.6 96 96 Calm 30.02 1017 10 16 0.00 0.00
2:55 am 02:55 Clear 66 19.1 65 18.4 96 96 Calm 30.01 1016 10 16 0.00 0.00
3:15 am 03:15 Partly Cloudy 66 19.1 65 18.5 96 96 Calm 30.01 1016 10 16 0.00 0.00
3:35 am 03:35 Partly Cloudy 66 19.1 65 18.5 96 96 Calm 30.02 1017 10 16 0.00 0.00
3:55 am 03:55 Partly Cloudy 66 19 65 18.3 96 96 Calm 30.01 1016 10 16 0.00 0.00
4:15 am 04:15 Clear 66 19.1 65 18.6 97 97 Calm 30.01 1016 10 16 0.00 0.00
4:35 am 04:35 Clear 66 19 65 18.5 97 97 Calm 30.01 1016 10 16 0.00 0.00
4:55 am 04:55 Clear 66 18.8 65 18.3 97 97 Calm 30.02 1017 10 16 0.00 0.00
5:15 am 05:15 Partly Cloudy 66 19.1 65 18.6 97 97 Calm 30.02 1017 10 16 0.00 0.00
5:35 am 05:35 Mostly Cloudy 66 19.1 65 18.6 97 97 Calm 30.02 1017 10 16 0.00 0.00
5:55 am 05:55 Partly Cloudy 66 19 65 18.5 97 97 Calm 30.02 1017 10 16 0.00 0.00
6:15 am 06:15 Partly Cloudy 66 19.1 65 18.6 97 97 Calm 30.02 1017 7 11 0.00 0.00
6:35 am 06:35 Clear 66 18.7 65 18.3 98 98 Calm 30.02 1017 10 16 0.00 0.00
6:55 am 06:55 Clear 66 19.1 66 18.7 98 98 Calm 30.02 1017 7 11 0.00 0.00
7:15 am 07:15 Sunny 67 19.2 66 18.8 98 98 Calm 30.03 1017 7 11 0.00 0.00
7:35 am 07:35 Partly Cloudy 66 19.1 65 18.6 97 97 Calm 30.03 1017 7 11 0.00 0.00
7:55 am 07:55 Partly Cloudy with Mist and Fog 68 20.1 67 19.6 97 97 SSE 3 6 30.03 1017 5 8 0.00 0.00
8:15 am 08:15 Sunny 71 21.8 69 20.7 94 94 Calm 30.03 1017 7 11 0.00 0.00
8:35 am 08:35 Partly Cloudy 72 22.4 70 21.2 93 93 NNE 5 7 30.05 1018 7 11 0.00 0.00
8:55 am 08:55 Mostly Cloudy 73 23 71 21.5 91 91 Calm 30.04 1017 10 16 0.00 0.00
9:15 am 09:15 Mostly Cloudy 74 23.3 71 21.5 90 90 Calm 30.04 1017 10 16 0.00 0.00
9:35 am 09:35 Sunny 76 24.6 71 21.4 82 82 Calm 30.03 1017 10 16 0.00 0.00
9:55 am 09:55 Sunny 79 26 72 22.1 79 79 Calm 30.02 1016 10 16 0.00 0.00
10:15 am 10:15 Sunny 81 27.4 72 22.4 74 74 SW 3 6 30.01 1016 10 16 0.00 0.00
10:35 am 10:35 Sunny 83 28.4 72 22.2 69 69 SW 5 7 30.02 1017 10 16 0.00 0.00
10:55 am 10:55 Sunny 84 29.1 73 22.5 68 68 SW 3 6 30.02 1016 10 16 0.00 0.00
11:15 am 11:15 Sunny 85 29.7 73 22.7 66 66 SW 7 11 30.02 1016 10 16 0.00 0.00
11:35 am 11:35 Sunny 87 30.5 73 22.7 63 63 WSW 6 9 30.01 1016 10 16 0.00 0.00
11:55 am 11:55 Sunny 87 30.8 73 22.5 61 61 WSW 5 7 30.01 1016 10 16 0.00 0.00
12:15 pm 12:15 Sunny 88 31 72 22.2 59 59 WSW 3 6 30.01 1016 10 16 0.00 0.00
12:35 pm 12:35 Sunny 89 31.4 71 21.7 56 56 Calm 30.01 1016 10 16 0.00 0.00
12:55 pm 12:55 Partly Cloudy 89 31.9 72 22.2 56 56 SSW 7 11 30.01 1016 10 16 0.00 0.00
1:15 pm 13:15 Partly Cloudy 90 32.2 71 21.6 54 54 SSW 3 6 30.00 1016 10 16 0.00 0.00
1:35 pm 13:35 Partly Cloudy 91 32.5 71 21.5 52 52 W 7 11 30.00 1016 10 16 0.00 0.00
1:55 pm 13:55 Partly Cloudy 91 32.9 71 21.8 52 52 SSW 5 7 30.00 1016 10 16 0.00 0.00
2:15 pm 14:15 Mostly Cloudy 91 32.8 71 21.8 52 52 W 5 7 29.99 1015 10 16 0.00 0.00
2:35 pm 14:35 Partly Cloudy 90 32 71 21.7 54 54 WSW 5 7 29.99 1016 10 16 0.00 0.00
2:55 pm 14:55 Partly Cloudy 91 32.7 71 21.8 53 53 SSW 8 13 29.98 1015 10 16 0.00 0.00
3:15 pm 15:15 Sunny 92 33.5 71 21.7 50 50 Calm 29.97 1015 10 16 0.00 0.00
3:35 pm 15:35 Sunny 92 33.2 70 21.1 49 49 SW 5 7 29.96 1015 10 16 0.00 0.00
3:55 pm 15:55 Partly Cloudy 93 33.9 70 21.2 47 47 SSW 6 9 29.96 1015 10 16 0.00 0.00
4:15 pm 16:15 Sunny 93 33.8 70 21 47 47 SW 10 17 29.95 1014 10 16 0.00 0.00
4:35 pm 16:35 Sunny 92 33.5 68 20.1 45 45 SW 9 15 29.95 1014 10 16 0.00 0.00
4:55 pm 16:55 Sunny 92 33.4 69 20.5 47 47 WSW 10 17 29.95 1014 10 16 0.00 0.00
5:15 pm 17:15 Sunny 92 33.4 70 21 48 48 WSW 12 19 29.95 1014 10 16 0.00 0.00
5:35 pm 17:35 Partly Cloudy 92 33.1 70 21.3 50 50 WSW 9 15 29.95 1014 10 16 0.00 0.00
5:55 pm 17:55 Mostly Cloudy 92 33.1 72 22 52 52 SSW 7 11 29.95 1014 10 16 0.00 0.00
6:15 pm 18:15 Mostly Cloudy 91 32.5 72 22.3 55 55 SSW 6 9 29.95 1014 10 16 0.00 0.00
6:35 pm 18:35 Partly Cloudy 90 32.2 72 22.1 55 55 SW 8 13 29.94 1014 10 16 0.00 0.00
6:55 pm 18:55 Sunny 88 31.1 71 21.9 58 58 SSW 8 13 29.94 1014 10 16 0.00 0.00
7:15 pm 19:15 Sunny 88 31.1 72 22.1 59 59 WSW 7 11 29.93 1014 10 16 0.00 0.00
7:35 pm 19:35 Sunny 87 30.5 72 22.3 62 62 SW 5 7 29.93 1014 10 16 0.00 0.00
7:55 pm 19:55 Sunny 85 29.7 72 22.4 65 65 SSW 3 6 29.95 1014 10 16 0.00 0.00
8:15 pm 20:15 Sunny 84 28.7 73 22.6 70 70 SW 3 6 29.95 1014 10 16 0.00 0.00
8:35 pm 20:35 Clear 82 27.9 72 22.3 72 72 SW 3 6 29.96 1015 10 16 0.00 0.00
8:55 pm 20:55 Clear 81 27.1 73 22.5 76 76 SSW 5 7 29.96 1015 10 16 0.00 0.00
9:15 pm 21:15 Clear 80 26.7 73 22.5 78 78 SW 3 6 29.97 1015 10 16 0.00 0.00
9:35 pm 21:35 Clear 78 25.7 73 22.5 83 83 SW 3 6 29.99 1015 10 16 0.00 0.00
9:55 pm 21:55 Clear 78 25.7 73 22.5 83 83 SSW 5 7 29.99 1015 10 16 0.00 0.00
10:15 pm 22:15 Clear 78 25.5 73 22.5 84 84 SW 3 6 30.01 1016 10 16 0.00 0.00
10:35 pm 22:35 Clear 76 24.2 72 22.4 90 90 WSW 3 6 30.02 1017 10 16 0.00 0.00
10:55 pm 22:55 Clear 74 23.5 72 22.2 92 92 WSW 3 6 30.02 1017 10 16 0.00 0.00
11:15 pm 23:15 Clear 75 24.1 72 22.1 89 89 WSW 3 6 30.02 1017 10 16 0.00 0.00
11:35 pm 23:35 Clear 73 23 72 22 94 94 Calm 30.04 1017 10 16 0.00 0.00
11:55 pm 23:55 Clear 74 23.4 72 22 92 92 SSW 5 7 30.04 1017 10 16 0.00 0.00

Powered by AerisWeather